Flag for U.S.A. Weather past 2 weeks in Miami, Florida, U.S.A.

Now
86 °F

Partly sunny.


Feels Like: 92 °F
Forecast: 81 / 88 °F
Wind: 10 mph from Southeast

Location: Miami International Airport

Current Time: Sep 2, 2014 at 12:03:34 PM

Latest Report: Sep 2, 2014 at 10:53 AM


Visibility: 10 mi

Pressure: 30.07 "Hg

Humidity: 61%

Dew point: 71 °F

Location of MiamiLocation

Historic Weather in Miami — Graph

°F

Miami temperature yesterday

Maximum temperature yesterday: 91 °F (at 2:53 PM)
Minimum temperature yesterday: 82 °F (at 12:53 AM)
Average temperature yesterday: 85 °F

Past Weeks' High & Low Weather Summary

 TemperatureHumidityPressure
High94 °F (Aug 19, 3:53 PM)91% (Aug 25, 4:53 AM)30.12 "Hg (Aug 25, 4:53 AM)
Low79 °F (Aug 25, 11:53 PM)48% (Aug 19, 3:53 PM)29.73 "Hg (Aug 25, 4:53 PM)
Average85 °F70%29.98 "Hg
* Reported Aug 18 10:53 AM — Sep 2 10:53 AM, Miami, Weather by CustomWeather, © 2014

Note: Actual official high and low records may vary slightly from our data, if they occured in-between our weather recording intervals... More about our weather records

Advertising

Miami weather history for previous 24 hours

 ConditionsComfort  
Time TempWeatherWind HumidityBarometerVisibility
10:53 AM
Sep 2
86 °FPartly sunny.10 mph61%30.07 "Hg10 mi
9:53 AM87 °FBroken clouds.16 mph61%30.07 "Hg10 mi
8:53 AM85 °FLight rain. Broken clouds.7 mph72%30.06 "Hg10 mi
7:53 AM83 °FPartly cloudy.8 mph74%30.04 "Hg10 mi
6:53 AM81 °FPassing clouds.No wind77%30.02 "Hg10 mi
5:53 AM80 °FPassing clouds.No wind79%30.01 "Hg10 mi
4:53 AM81 °FPassing clouds.3 mph79%30.01 "Hg10 mi
3:53 AM82 °FClear.No wind77%30.03 "Hg10 mi
2:53 AM81 °FClear.6 mph77%30.05 "Hg10 mi
1:53 AM83 °FPassing clouds.8 mph72%30.07 "Hg10 mi
12:53 AM83 °FPassing clouds.7 mph74%30.08 "Hg10 mi
11:53 PM
Sep 1
83 °FPassing clouds.8 mph72%30.09 "Hg10 mi
10:53 PM83 °FPassing clouds.9 mph74%30.09 "Hg10 mi
9:53 PM84 °FPassing clouds.9 mph70%30.07 "Hg10 mi
8:53 PM84 °FPassing clouds.10 mph72%30.06 "Hg10 mi
7:53 PM85 °FScattered clouds.12 mph68%30.03 "Hg10 mi
6:53 PM87 °FScattered clouds.10 mph61%30.04 "Hg10 mi
5:53 PM88 °FScattered clouds.9 mph59%30.03 "Hg10 mi
4:53 PM89 °FBroken clouds.10 mph55%30.03 "Hg10 mi
3:53 PM91 °FScattered clouds.16 mph54%30.05 "Hg10 mi
2:53 PM91 °FScattered clouds.14 mph57%30.06 "Hg10 mi
1:53 PM90 °FBroken clouds.13 mph57%30.08 "Hg10 mi
12:53 PM85 °FLight rain. Partly sunny.22 mph68%30.09 "Hg7 mi
Weather by CustomWeather, © 2014

See weather overviewHow to use our weather pages